TIME,DELAY(SENSOR),PRES,T(CTD),SAL,OXYGEN,RAWTEMP,T(OPTODE),TCPHASE,FLUOR,BETA(BETA700),BETA(BETA412),BETA(BETA440),CDOM,C(CSC),ED(ED411.90),ED(ED443.80),ED(ED489.40),ED(ED554.70),LU(LU412.20),LU(LU443.80),LU(LU489.40),LU(LU555.00),COMP,TILTX,TILTX(TILTY),CHECK
1379689619,5807,497.6799926757812500,17.6678009033203120,36.4833984375000000,208.5637054443359400,166.4405059814453000,17.6604194641113280,32.2558517456054700,144,4130,49,54,47,9018,2146957376,2147514907,2147273874,2147450230,2147081901,2146952969,2147652699,2147125312,2183,-1,8,20072
1379689758,5806,486.6300048828125000,17.7418003082275400,36.4973983764648440,210.0592041015625000,163.9217987060547000,17.7364501953125000,32.1379089355468750,145,4130,47,54,48,9017,2146958564,2147515081,2147273426,2147449755,2147083986,2146956315,2147654683,2147127817,2337,-2,8,59454
1379689900,5805,475.8500061035156000,17.8083000183105470,36.5054016113281250,211.0944061279297000,161.4566955566406200,17.8108596801757800,32.0470695495605500,144,4130,49,54,47,9015,2146957028,2147516699,2147272548,2147451181,2147081298,2146955044,2147656694,2147128027,1516,-1,8,51358
1379690051,5807,464.7000122070312500,17.8859996795654300,36.5171012878418000,211.8083038330078000,159.0682067871093800,17.8829708099365230,31.9753398895263670,145,4130,48,54,46,9017,2146959405,2147518198,2147270208,2147449709,2147084278,2146952000,2147653741,2147128256,632,-2,8,61241
1379690194,5810,453.0199890136719000,17.9486007690429700,36.5256996154785160,213.4107971191406200,157.0480957031250000,17.9439601898193360,31.8602695465087900,145,4130,48,54,48,9018,2146960118,2147515145,2147272539,2147449718,2147074358,2146951963,2147655314,2147126656,2601,-1,8,60854
1379690308,5803,442.0499877929687500,17.9927005767822270,36.5317001342773440,214.2111968994140600,155.5357971191406200,17.9896297454834000,31.7965698242187500,143,4130,47,53,46,9021,2146958729,2147516562,2147272210,2147448996,2147076470,2146958957,2147654052,2147125522,2251,-1,8,25069
1379690425,5806,430.8200073242187500,18.0543994903564450,36.5374984741210940,215.2510070800781200,153.4503021240234400,18.0526199340820300,31.7120609283447270,144,4130,48,54,47,9020,2146957787,2147513737,2147269421,2147448950,2147075282,2146956827,2147652635,2147127213,1497,-2,8,39375
1379690540,5808,419.8699951171875000,18.1025009155273440,36.5453987121582000,215.2700958251953000,151.9871978759765600,18.0968093872070300,31.6912193298339840,142,4130,48,54,47,9018,2146962706,2147516141,2147268626,2147443904,2147073664,2146959744,2147653558,2147123520,969,-1,8,43820
1379690655,5808,409.0199890136719000,18.1256999969482420,36.5442008972168000,216.1699066162109400,151.0785980224609400,18.1242504119873050,31.6309509277343750,145,4130,48,54,46,9019,2146955574,2147513773,2147271396,2147449060,2147076059,2146959689,2147654573,2147125092,328,-1,8,13368
1379690772,5805,397.9700012207031000,18.1644992828369140,36.5465011596679700,216.9842987060547000,149.8016967773437500,18.1628303527832030,31.5702304840087900,144,4130,49,53,47,9021,2146958674,2147515904,2147271241,2147450953,2147068900,2146956196,2147654363,2147128365,3098,-2,8,8706
1379690887,5806,387.0000000000000000,18.2024002075195300,36.5470008850097660,217.8898010253906200,148.4353942871093800,18.2041091918945300,31.5040702819824220,143,4130,48,54,47,9023,2146960493,2147516059,2147271954,2147450441,2147072365,2146958043,2147653065,2147126098,2222,-1,8,37552
1379691002,5805,376.3599853515625000,18.2532997131347660,36.5486984252929700,220.9239959716797000,146.8493041992187500,18.2520294189453120,31.3241291046142580,143,4130,48,54,47,9022,2146962578,2147513947,2147268370,2147447524,2147074212,2146960905,2147648027,2147128969,1258,-2,8,51416
1379691132,5805,364.7900085449219000,18.3050994873046880,36.5513992309570300,224.2505035400390600,145.2023925781250000,18.3017997741699220,31.1309509277343750,144,4130,49,53,46,9028,2146961353,2147513481,2147269449,2147444480,2147070710,2146960402,2147652160,2147126363,490,-1,8,56028
1379691271,5804,352.9200134277344000,18.3500995635986330,36.5503005981445300,227.8090972900390600,143.7617950439453000,18.3453407287597660,30.9324607849121100,143,4130,48,54,45,9024,2146957878,2147515529,2147270125,2147445888,2147081389,2146956882,2147655689,2147127030,2784,-1,8,62223
1379691400,5806,342.1000061035156000,18.3619995117187500,36.5505981445312500,229.8703002929687500,143.3074951171875000,18.3590698242187500,30.8244304656982420,143,4130,46,55,46,9027,2146959542,2147513728,2147268772,2147445714,2147076388,2146960685,2147657051,2147128036,2638,-1,8,4417
1379691527,5806,331.4100036621094000,18.3738994598388670,36.5498008728027340,233.6723022460937500,142.8979949951172000,18.3714408874511720,30.6331100463867200,143,4130,47,53,47,9024,2146958427,2147511122,2147268937,2147446875,2147073929,2146960502,2147660827,2147126427,2284,-2,8,24565
1379691668,5802,319.8299865722656000,18.4104003906250000,36.5522003173828100,234.9241027832031200,141.7080993652343800,18.4074096679687500,30.5570507049560550,143,4130,47,54,48,9022,2146957613,2147516553,2147271195,2147448923,2147077696,2146960987,2147661010,2147130733,1356,-1,8,54725
1379691807,5806,308.5299987792969000,18.4293994903564450,36.5553016662597660,235.7832031250000000,141.1112060546875000,18.4254493713378900,30.5077304840087900,143,4130,46,53,47,9028,2146958144,2147516891,2147269458,2147444004,2147074633,2146963245,2147662555,2147125906,563,-1,8,33478
1379691946,5805,297.2500000000000000,18.4454994201660160,36.5563011169433600,236.3966979980468800,140.5637969970703000,18.4419994354248050,30.4713306427001950,143,4130,48,54,47,9027,2146958464,2147515483,2147269760,2147447305,2147076077,2146959606,2147650989,2147125211,3186,-1,8,42845
1379692076,5805,286.6700134277344000,18.4692993164062500,36.5584983825683600,235.3829956054687500,139.7604064941406200,18.4662895202636720,30.5088500976562500,143,4130,48,55,47,9026,2146954614,2147515949,2147269549,2147445897,2147070400,2146962331,2147662244,2147127369,2971,-1,8,16100
1379692215,5809,275.3900146484375000,18.4911994934082030,36.5583000183105500,234.9118957519531200,139.1033935546875000,18.4861507415771500,30.5229797363281250,142,4130,49,54,47,9025,2146958244,2147515465,2147267830,2147442925,2147077549,2146967570,2147665362,2147129910,2704,-1,8,1174
1379692356,5806,264.0000000000000000,18.5300006866455080,36.5619010925293000,233.3545074462890600,137.6181030273437500,18.5310592651367200,30.5780601501464840,142,4130,48,53,46,9026,2146961060,2147518537,2147272694,2147446902,2147077220,2146967524,2147690176,2147128429,2069,-1,8,1966
1379692483,5800,253.7899932861328000,18.5522003173828120,36.5596008300781250,232.5802001953125000,137.0420074462890600,18.5484790802001950,30.6079998016357420,142,4130,48,55,46,9024,2146957028,2147514249,2147270921,2147448091,2147078052,2146977005,2147692251,2147124864,1278,-2,8,2328
1379692643,5807,241.1199951171875000,18.5951995849609380,36.5609016418457000,232.9884033203125000,135.6154022216797000,18.5916194915771500,30.5695495605468750,142,4130,48,54,48,9024,2146957878,2147514898,2147269284,2147445257,2147077366,2146979593,2147711360,2147130889,3547,-1,8,23006
1379692765,5806,229.8300018310547000,18.6627998352050780,36.5666007995605500,232.2003021240234400,133.3587036132812500,18.6598701477050780,30.5776405334472660,142,4130,48,55,47,9027,2146959606,2147515328,2147269165,2147446226,2147082861,2146989312,2147732397,2147134134,3099,-2,8,34407
1379692880,5805,218.3000030517578000,18.7609996795654300,36.5714988708496100,231.1502075195312500,130.0773010253906200,18.7591400146484380,30.5852298736572270,142,4130,47,54,47,9026,2146955657,2147517001,2147270930,2147444196,2147083739,2147009188,2147769700,2147135872,2519,-1,8,29636
1379692998,5806,206.7100067138672000,18.8733997344970700,36.5817985534668000,228.9335021972656200,126.2436981201171900,18.8751392364501950,30.6431007385253900,141,4130,48,54,46,9024,2146958454,2147519780,2147273170,2147448137,2147080996,2147029961,2147818688,2147135670,993,-1,8,51918
1379693101,5806,196.7400054931640600,19.0121994018554700,36.5834007263183600,227.9161987304687500,121.4802017211914000,19.0193405151367200,30.6303997039794920,141,4130,47,55,46,9020,2146958601,2147520768,2147272658,2147444544,2147083428,2147053558,2147862043,2147137517,624,-1,8,44816
1379693156,5805,191.5099945068359400,19.0622997283935550,36.5892982482910160,227.5048980712890600,120.1868972778320300,19.0585002899169920,30.6335105895996100,142,4130,49,54,47,9021,2146959414,2147519963,2147275126,2147445577,2147091629,2147069412,2147895890,2147140214,152,-1,8,5210
1379693211,5808,186.3699951171875000,19.1665000915527340,36.5928993225097660,226.7335052490234400,116.8018035888671900,19.1610202789306640,30.6270408630371100,141,4130,49,53,48,9022,2146956022,2147521097,2147277750,2147444233,2147088018,2147086372,2147930368,2147143954,1800,-1,8,1246
1379693292,5802,179.3600006103515600,19.2698993682861330,36.6015014648437500,225.0644073486328000,112.6063995361328100,19.2881298065185550,30.6549396514892580,142,4130,48,55,47,9022,2146956982,2147518235,2147277577,2147445677,2147096868,2147104109,2147959186,2147143113,2904,-2,8,3161
1379693347,5806,175.0399932861328000,19.3649997711181640,36.6007003784179700,224.9380950927734400,110.0880966186523400,19.3644504547119140,30.6278305053710940,140,4130,47,54,47,9023,2146956507,2147521124,2147277129,2147444416,2147090651,2147093065,2147914377,2147144082,2324,-2,8,64977
1379693402,5807,170.7200012207031200,19.4328994750976560,36.6030998229980500,224.7720947265625000,107.8647994995117200,19.4318408966064450,30.6070404052734380,141,4130,49,54,47,9024,2146956297,2147522660,2147282532,2147444086,2147105024,2147160941,2148073170,2147154596,1781,-1,8,63357
1379693457,5803,166.2200012207031200,19.4927997589111330,36.6026000976562500,225.4893951416015600,105.6298980712890600,19.4996109008789060,30.5413799285888670,140,4130,48,53,47,9021,2146959149,2147519588,2147283648,2147442870,2147110198,2147201792,2148147803,2147157705,1984,-2,8,3637
1379693512,5811,161.7500000000000000,19.5869007110595700,36.6030998229980500,226.8833007812500000,102.7102966308593800,19.5881500244140620,30.4336395263671880,142,4130,47,54,47,9023,2146958692,2147523510,2147284617,2147439186,2147120192,2147249636,2148230564,2147160923,1714,-1,8,35776
1379693598,5805,155.1799926757812500,19.7350006103515620,36.6062011718750000,228.2745056152343800,97.9934234619140600,19.7312698364257800,30.3030490875244140,142,4130,47,55,45,9023,2146958829,2147524324,2147289837,2147442230,2147138148,2147324379,2148366381,2147171840,1110,-1,8,22491
1379693665,5805,150.6199951171875000,19.8617992401123050,36.6050987243652340,230.2841949462890600,93.8124465942382800,19.8581790924072270,30.1499900817871100,143,4130,49,54,48,9016,2146957257,2147527113,2147292891,2147443291,2147153389,2147392822,2148476416,2147179209,1461,-1,8,41265
1379693720,5807,147.1300048828125000,19.9202003479003900,36.6105003356933600,230.7705993652343800,91.1990737915039000,19.9375400543212900,30.0923690795898440,142,4130,48,54,46,9018,2146959268,2147529298,2147293074,2147440777,2147169828,2147452004,2148579757,2147186249,1705,-2,8,45358
1379693787,5802,142.9199981689453000,20.1014995574951170,36.6118011474609400,231.4022979736328000,86.1944503784179700,20.0895805358886720,29.9966201782226560,142,4130,47,55,47,9009,2146961398,2147531958,2147298788,2147438198,2147192704,2147545938,2148719478,2147195364,1961,-1,8,16300
1379693854,5806,138.8300018310547000,20.2292995452880860,36.6165008544921900,232.0901031494140600,81.6929779052734400,20.2264099121093750,29.9049892425537100,142,4130,46,55,46,9008,2146959981,2147532004,2147305033,2147439158,2147220105,2147640073,2148867154,2147203227,2754,-2,8,25482
1379693939,5808,134.4600067138672000,20.3374004364013670,36.6225013732910160,231.3742980957031200,78.3589935302734400,20.3278102874755860,29.8963108062744140,142,4130,49,55,48,9007,2146962761,2147533403,2147296420,2147438098,2147201197,2147492160,2148569024,2147184740,2621,-2,9,54622
1379694042,5805,131.0299987792968800,20.4060993194580080,36.6262016296386700,228.5055999755859400,76.3067703247070300,20.3902397155761720,30.0083808898925780,143,4130,47,54,47,9008,2146957001,2147529106,2147291264,2147436041,2147198555,2147447872,2148447158,2147181110,2239,-1,8,7590
1379694169,5803,127.2799987792968800,20.4911994934082030,36.6259994506835940,225.5442962646484400,73.4747467041015600,20.4764194488525400,30.1170692443847660,142,4130,47,54,47,9006,2146962230,2147534281,2147296000,2147437558,2147231744,2147538834,2148581083,2147192594,1894,-2,8,33638
1379694298,5805,122.8600006103515600,20.6093006134033200,36.6213989257812500,226.2738952636718800,69.5464477539062500,20.5960197448730470,30.0302391052246100,143,4130,49,53,46,9001,2146964425,2147540909,2147309805,2147435437,2147326838,2147836635,2149047872,2147227730,833,-1,8,16862
1379694401,5807,119.0800018310546900,20.6868991851806640,36.6101989746093750,230.8251037597656200,66.9927520751953100,20.6737995147705080,29.7756309509277340,143,4130,47,54,47,8996,2146971227,2147566345,2147355593,2147438966,2147581696,2148677220,2150392704,2147324224,661,-1,9,39868
1379694559,5807,113.6699981689453100,20.8871994018554700,36.6161994934082000,239.4367065429687500,60.2250595092773440,20.8800506591796880,29.2838592529296880,145,4130,48,54,47,8995,2146978742,2147574610,2147380105,2147441078,2147796013,2149135158,2151008201,2147371849,918,-1,9,59708
1379694650,5808,109.6399993896484400,21.1793003082275400,36.6166992187500000,244.3477020263672000,49.9129104614257800,21.1947097778320300,28.9299907684326170,144,4130,49,55,48,8985,2146982546,2147580352,2147381220,2147442742,2147872658,2149216758,2151048987,2147382875,1034,-1,8,48594
1379694753,5806,106.1999969482421900,21.4545001983642580,36.6156005859375000,246.1401977539062500,43.2599906921386700,21.3979606628417970,28.7664508819580080,147,4130,47,54,47,8970,2146991954,2147589138,2147396288,2147440685,2148056676,2149575899,2151550838,2147429513,1639,-1,9,1210
1379694899,5810,101.6200027465820300,21.6896991729736330,36.6068000793457000,245.8305969238281200,33.6102104187011700,21.6931400299072270,28.6585407257080080,145,4130,48,54,46,8960,2146980370,2147563446,2147348150,2147436004,2147800356,2148679908,2150041682,2147322230,2669,-1,8,28331
1379694978,5809,98.7200012207031200,21.8176994323730470,36.5998992919921900,246.0502014160156200,29.5891704559326170,21.8162803649902340,28.5984096527099600,146,4130,48,54,47,8949,2146978011,2147554294,2147329142,2147434669,2147721974,2148362486,2149507675,2147286729,2807,-1,8,61045
1379695034,5805,96.7300033569336000,22.0205001831054700,36.6013984680175800,248.9954986572265600,23.7595195770263670,21.9949398040771500,28.3962993621826170,146,4130,48,56,46,8951,2146985782,2147567478,2147347474,2147434806,2147940132,2148805348,2150113874,2147343533,2574,-1,9,20505
1379695089,5802,94.9899978637695300,22.0818004608154300,36.6049995422363300,251.3074035644531200,21.3888492584228500,22.0676403045654300,28.2670192718505860,145,4130,48,52,45,8954,2146979565,2147561545,2147327497,2147433572,2147815140,2148455286,2149546971,2147297206,2142,-2,8,4787
1379695175,5807,91.8000030517578100,22.2415008544921880,36.5970993041992200,252.5505981445312500,16.2979793548584000,22.2238693237304700,28.1506309509277340,144,4130,48,55,46,8963,2146987501,2147569536,2147343360,2147432950,2147983634,2148707364,2149810304,2147327049,1257,-1,9,14387
1379695230,5805,89.2600021362304700,22.3689994812011720,36.5896987915039060,253.8760070800781200,12.1006002426147460,22.3527793884277340,28.0424404144287100,143,4130,48,55,46,8967,2146997220,2147581229,2147359680,2147430573,2148220571,2149137060,2150313161,2147376036,399,-2,8,17780
1379695285,5805,87.0599975585937500,22.4262008666992200,36.5915985107421900,258.9726867675781000,10.0877199172973630,22.4146404266357420,27.8042907714843750,144,4130,48,54,46,8965,2147073938,2147717330,2147565705,2147442761,2150353782,2153458706,2156080923,2147903414,3029,-2,8,27599
1379695340,5804,85.1200027465820300,22.5097007751464840,36.5909996032714840,272.9364929199219000,7.0234990119934080,22.5088405609130860,27.2078990936279300,145,4130,48,55,48,8967,2147082148,2147728493,2147574793,2147445595,2150639981,2153820187,2156318747,2147939410,2357,-1,8,37340
1379695407,5805,83.0100021362304700,22.5753002166748050,36.5849990844726560,270.5780029296875000,5.1385669708251950,22.5668106079101560,27.2769908905029300,142,4130,48,54,47,8967,2147023972,2147619446,2147405805,2147435693,2149010715,2150337115,2151531922,2147504100,1660,-2,9,35665
1379695493,5809,79.6500015258789000,22.5809001922607420,36.5840988159179700,267.3703002929687500,3.3111689090728760,22.6230392456054700,27.3811607360839840,143,4130,49,56,46,8964,2147060205,2147664548,2147464850,2147437878,2149995867,2151881472,2153130605,2147673179,912,-1,9,55402
1379695548,5803,76.6500015258789000,22.8754997253417970,36.5736007690429700,272.1896057128906000,-4.1797761917114260,22.8537101745605470,27.1006908416748050,143,4130,47,54,47,8960,2147099062,2147720045,2147528841,2147442596,2151080118,2153494765,2154759908,2147851830,1070,-1,9,11649
1379695603,5803,74.1100006103515600,23.0314998626709000,36.5847015380859400,277.3973083496094000,-9.0782756805419920,23.0047302246093750,26.8415908813476560,142,4130,48,55,48,8964,2147146633,2147778550,2147586678,2147444946,2152272000,2155238162,2156469796,2148037595,1457,-2,9,62295
1379695658,5804,71.9800033569336000,23.2124996185302730,36.5885009765625000,287.7580871582031000,-14.8922004699707030,23.1841602325439450,26.3875007629394530,144,4130,48,54,47,8966,2147238674,2147908397,2147744493,2147455414,2154755483,2159036388,2160389046,2148465691,1220,-2,9,55572
1379695725,5809,70.0500030517578100,23.4766998291015620,36.5708999633789060,306.2395935058594000,-23.1897907257080080,23.4405994415283200,25.6427192687988280,142,4130,49,54,47,8966,2147318006,2148003492,2147862820,2147465069,2156870747,2162054985,2163276827,2148786989,885,-2,9,47247
1379695843,5809,68.7900009155273400,23.5118007659912100,36.5638008117675800,342.7474060058594000,-25.2105407714843750,23.5031204223632800,24.4654598236084000,142,4130,47,54,47,8965,2147231250,2147868809,2147672804,2147451785,2154528905,2157882121,2158430619,2148280612,810,-2,9,53688
1379696121,5807,66.0699996948242200,23.8640995025634770,36.5346984863281250,382.0911865234375000,-36.1875190734863300,23.8431701660156250,23.2436103820800780,142,4130,48,54,48,8959,2147355574,2148013696,2147809581,2147458139,2157517906,2162019776,2162128246,2148684699,3231,-2,9,25094
1379696201,5806,64.5199966430664000,24.0900001525878900,36.5465011596679700,382.6163024902344000,-43.0299491882324200,24.0555496215820300,23.1528205871582030,143,4130,48,54,47,8952,2147656054,2148404096,2148238427,2147484525,2165634294,2174252196,2174450706,2150027657,2600,-2,9,4524
1379696455,5809,62.2000007629394500,24.2653007507324220,36.5455017089843750,426.6684875488281000,-49.4931602478027340,24.2564392089843750,21.9956798553466800,145,4130,47,54,47,8957,2147779364,2148537216,2148340059,2147490194,2168955830,2177659465,2176375844,2150292882,1736,-2,8,49029
1379696535,5806,60.4000015258789060,24.6476001739501950,36.5337982177734400,417.1473999023437500,-60.6589698791503900,24.6042003631591800,22.0958805084228500,145,4130,48,55,47,8962,2148172763,2149012406,2148889179,2147542281,2179757769,2192309961,2189702299,2151832996,1043,-2,9,31953
1379696753,5806,58.2299995422363300,24.8234004974365230,36.5009994506835940,502.6250000000000000,-68.5260925292968800,24.8497600555419920,20.1753406524658200,141,4130,46,54,46,8955,2147797184,2148478518,2148200292,2147477504,2168829321,2175496493,2172332681,2149896283,3066,-2,8,9505
1379696832,5808,56.5200004577636700,25.3726005554199220,36.4676017761230500,457.7549133300781000,-83.3336105346679700,25.3132190704345700,20.9315395355224600,144,4130,48,55,46,8952,2148275547,2149035163,2148735021,2147514633,2181146870,2191769225,2186817819,2151620553,1805,-2,9,23692
1379697210,5808,53.8899993896484400,25.7199001312255860,36.4215011596679700,544.0109863281250000,-95.9624328613281200,25.7098293304443360,19.1093807220459000,140,4130,48,53,45,8942,2148403812,2149111716,2148803236,2147542336,2183594157,2192579894,2185553316,2151504512,787,-1,8,1638
1379697245,5805,53.9399986267089840,25.7162990570068360,36.4257011413574200,569.7769165039062000,-96.4069671630859400,25.7238101959228500,18.6544208526611330,138,4130,47,54,46,8942,2148166409,2148828068,2148505152,2147515145,2177726299,2184761618,2178519131,2150665956,604,-1,9,38727
1379697530,5809,51.9500007629394500,26.5198001861572270,36.2397994995117200,587.1439819335938000,-121.4710006713867200,26.5149307250976560,18.0981597900390620,140,4130,48,55,46,8928,2149483474,2150273325,2149849600,2147612461,2211026514,2226953435,2213854948,2154832621,117,-2,9,2161
1379698053,5804,49.9300003051757800,26.6012001037597660,36.2064018249511700,610.6074829101562000,-124.5726013183593800,26.6131992340087900,17.6856193542480470,141,4130,47,53,47,8940,2149990537,2150679734,2150014985,2147596772,2220514806,2235819648,2218693120,2155433947,2900,-2,9,55076
1379698165,5808,47.8100013732910160,26.6103992462158200,36.2027015686035160,568.7047119140625000,-124.8563003540039000,26.6222000122070300,18.3718605041503900,140,4130,48,55,46,8944,2150362450,2151001206,2150202788,2147613568,2230154240,2244897929,2224169481,2156184073,1959,-2,9,14245
1379698281,5803,44.7999992370605500,26.6117000579834000,36.1999015808105500,536.7479248046875000,-124.8387985229492200,26.6216392517089840,18.9330406188964840,139,4130,48,54,45,8944,2150689554,2151223853,2150328036,2147641005,2239423259,2251790747,2226882642,2156782308,1433,-2,9,54936
1379698328,5805,42.7900009155273440,26.6112003326416000,36.1999015808105500,523.0817260742188000,-124.8462982177734400,26.6218795776367200,19.1833305358886720,136,4130,48,53,47,8943,2150781933,2151246628,2150295616,2147656155,2243254372,2253635172,2226308169,2156793618,1314,-2,9,57370
1379698375,5806,40.5699996948242200,26.6128005981445300,36.1988983154296900,511.4364013671875000,-124.8634033203125000,26.6224193572998050,19.4018096923828120,135,4130,48,54,46,8945,2150821778,2151211766,2150211593,2147658102,2244955986,2253136850,2224221248,2156814765,1326,-2,9,27677
1379698409,5809,38.8300018310546900,26.6128997802734380,36.1986999511718750,499.6192932128906000,-124.8430023193359400,26.6217708587646500,19.6291999816894530,136,4130,49,55,46,8946,2150740022,2151085750,2150057581,2147644105,2242632795,2249057197,2219755693,2156154422,1348,-1,9,33344
1379698443,5805,37.0099983215332000,26.6140995025634770,36.1991996765136700,491.6543884277344000,-124.9063034057617200,26.6237792968750000,19.7848300933837900,136,4130,48,54,47,8944,2151926921,2152262976,2151030848,2147752557,2273429577,2282984493,2244985773,2159893476,1332,-1,8,16480
1379698477,5804,35.0999984741210940,26.6140003204345700,36.1987991333007800,495.9931945800781000,-124.9642028808593800,26.6256198883056640,19.6987705230712900,134,4130,47,54,47,8944,2151738322,2151997467,2150757668,2147737773,2270657078,2277779977,2239740498,2159544064,1366,-1,8,63974
1379698511,5808,33.0800018310546900,26.6128997802734380,36.1987991333007800,500.1867065429687500,-124.9504013061523400,26.6251792907714840,19.6170692443847660,135,4130,47,54,47,8945,2153253513,2153483538,2152030902,2147945097,2312067355,2322984091,2273176896,2164794267,1239,-1,8,62867
1379698545,5809,31.0799999237060550,26.6130008697509770,36.1983985900878900,517.6054077148438000,-125.0631027221679700,26.6287498474121100,19.2832107543945300,134,4130,47,55,48,8948,2154074194,2154245504,2152692717,2148115300,2334931739,2346666980,2289401920,2167974985,1118,-2,8,20533
1379698580,5808,29.0499992370605470,26.6149005889892580,36.1987991333007800,540.8110961914062000,-125.2401962280273400,26.6343708038330080,18.8555908203125000,134,4130,48,55,45,8926,2154271798,2154371181,2152765997,2148214656,2344080685,2354570368,2294417892,2169756406,1082,-1,9,54118